Location: Bay Ridge
(40.6340°N, 74.0146°W)
Time: 23:59:39
(UTC+00:00)

Cosmos 2082 Rocket - Pass Details

Date: 15 November 2019
Orbit: 833 x 854 km, 71.0° (Epoch: 10 December)

Event Time Altitude Azimuth Distance (km) Brightness Sun altitude
Exits shadow 09:57:36 36° 296° (WNW) 1,337 2.7 -19.9°
Maximum altitude 09:57:51 36° 302° (WNW) 1,333 2.7 -19.9°
Drops below altitude 10° 10:03:05 10° 8° (N) 2,489 4.6 -18.9°
Sets 10:05:45 0° 17° (NNE) 3,427 5.5 -18.4°
